Showing default

QIANFAN-58, 62788

Orbit data source: Space-Track

QIANFAN-58, 62788 is a Chinese payload satellite in LEO that was launched on Thu, 23 Jan 2025 UTC via a CHANG ZHENG 6A launch vehicle from the Taiyaun Space Center, China (TSC). Payload-class satellites include a variety of spacecraft equipped with specific instruments for various scientific and technological missions. These include communications satellites like Starlink; space stations such as the ISS; scientific satellites like the Hubble; Earth observation satellites from companies like Planet Labs, Umbra, and HawkEye 360; GPS; miniature CubeSats for education and research; and military/defense satellites.

Loading next visibility...
Identifier
62788, 2025-016D
Orbit
LEO
Country
Flag of CNCN / PRC
Related business
Manufacturer
SECM
Mission
Operational Commercial Communications
Bus & Motor
QIANFAN, Unknown motor
Mass
267 kg wet, ~267 kg dry
Launch date (UTC)
2025-01-23 (9 months ago)
Launch vehicle
CHANG ZHENG 6A
Launch site
Taiyaun Space Center, China (TSC)
Object type
Payload
Rocket body
Debris
Shape & HBR
Box + 1 Pan, 1.3 m
Radar Cross Section
13.200 m², Large (>1 m²)

Expand to show TLE details & history
Last TLE update: 10 hours ago

TLE from 10 hours ago
0 QIANFAN-58
1 62788U 25016D   25286.95223281  .00000073  00000-0  93747-4 0  9994
2 62788  88.9715 109.2226 0014616 149.8767 210.3228 13.50974635 39174
Epoch: 2025-10-13T22:51Z
TLE epoch observation values (Epoch: 2025-10-13T22:51:12.914Z)
Latitude
-0.00001°
Longitude
103.67116°
Altitude
1,081.029 km
Speed
7.307 km/s
True Right ascension
07h 16m 53s
True Declination
0° 00' 00"
Sunlit
Object was in daylight at epoch
Visualization orbit readout
Latitude
Unknown
Longitude
Unknown
Altitude
Unknown
Speed
Unknown
Apparent Right ascension
Unknown
Apparent Declination
Unknown
Sunlit
N/A
Visualization observer readout
Local Sidereal Time
03:43:47
Azimuth
Unknown
Elevation
Unknown
Doppler factor
Unknown
Orbital elements
Apogee altitude
1,076.606 km
Perigee altitude
1,054.846 km
Semi-major axis
7,443.863 km
Eccentricity
0.00146
Inclination
88.9715°
RAAN
109.2226°
Arg. of periapsis
149.8767°
True anomaly
210.23837°
Mean anomaly
210.3228°
Eccentric anomaly
210.28057°
Mean motion
3.37945 °/min
Orbital period
106.53 mins
BSTAR
0.000093747
Loading maneuver chart data...
Computing Atmospheric mass density...
Loading historical data...
Loading historical data...
Loading historical data...
Loading historical data...
Loading historical data...
Loading historical data...
Loading historical data...

Documentation

Showing up to 5 results
|